Regional Weather Roundup
Issued by NWS

Home | Current Version | Previous Version | Graphics & Text | Print | Product List | Glossary On
Versions: 1 2 3 4 5 6 7 8 9 10 11 12 13 14 15 16 17 18 19 20 21 22 23 24 25 26 27 28 29 30 31 32 33 34 35 36 37 38 39 40 41 42 43 44 45 46 47 48 49 50
000
ASUS43 KMKX 212321
RWRWI

WISCONSIN REGIONAL WEATHER ROUNDUP
NATIONAL WEATHER SERVICE MILWAUKEE/SULLIVAN WI
600 PM CDT SUN SEP 21 2014

NOTE: "FAIR" INDICATES FEW OR NO CLOUDS BELOW 12,000 FEET WITH NO
SIGNIFICANT WEATHER AND/OR OBSTRUCTIONS TO VISIBILITY.

WIZ001-002-006>008-014>016-023>028-220000-
NORTHWEST WISCONSIN

CITY           SKY/WX    TMP DP  RH WIND       PRES   REMARKS
SUPERIOR ARPT  SUNNY     63  43  47 N9        30.13R
ASHLAND        SUNNY     59  45  59 CALM      30.14R
HAYWARD        SUNNY     61  40  45 NW5       30.14R
SIREN          SUNNY     63  44  49 N6        30.15R
RICE LAKE      SUNNY     61  42  48 NW6       30.15R
LADYSMITH      SUNNY     59  42  52 N10       30.15R
EAU CLAIRE     SUNNY     63  44  50 NW10      30.13R
MENOMONIE      CLEAR     64  43  46 NW10      30.14R
NEW RICHMOND   SUNNY     63  44  49 N8        30.16R
OSCEOLA        SUNNY     64  45  51 NW6       30.18S
$$

WIZ003>005-009-010-017-018-220000-
NORTH CENTRAL WISCONSIN

CITY           SKY/WX    TMP DP  RH WIND       PRES   REMARKS
WOODRUFF       CLEAR     52  38  60 N8        30.13R
RHINELANDER    CLEAR     50  36  58 N9        30.13R
EAGLE RIVER    CLEAR     49  35  57 N10       30.12R
LAND O LAKES   CLEAR     50  38  63 NW6       30.12S
PHILLIPS       CLEAR     53  39  59 N5        30.13S
TOMAHAWK       CLEAR     51  37  58 NW8       30.14R
MEDFORD        CLEAR     54  41  62 N12       30.12R
MERRILL        CLEAR     54  40  59 N8        30.12R
$$

WIZ029-030-035-036-043>047-220000-
CENTRAL WISCONSIN

CITY           SKY/WX    TMP DP  RH WIND       PRES   REMARKS
WAUSAU         CLEAR     56  40  55 N13       30.09R
MOSINEE        CLEAR     55  43  62 NW16      30.12R
MARSHFIELD     CLEAR     59  42  53 N14       30.11R
STEVENS POINT  CLEAR     56  41  57 NW9       30.10R
WAUPACA        CLEAR     60  44  55 NW12      30.08R
WAUTOMA        CLEAR     61  43  51 N12       30.08R
WISC RAPIDS    CLEAR     59  42  53 N13G22    30.11R
CAMP DOUGLAS   CLEAR     62  47  57 N10       30.09R
$$

WIZ011>013-019>022-031-037>040-048>050-220000-
NORTHEAST WISCONSIN

CITY           SKY/WX    TMP DP  RH WIND       PRES   REMARKS
ANTIGO         CLEAR     52  40  65 NW12      30.10R
STURGEON BAY   MOCLDY    50  41  71 N15       30.08R
GREEN BAY      CLEAR     56  43  61 N10       30.07R
MANITOWOC      MOCLDY    55  44  66 N12       30.05R
APPLETON       PTCLDY    55  41  58 N9        30.07R
CLINTONVILLE   CLEAR     55  37  50 N10G17    30.09R
OSHKOSH        CLEAR     58  42  55 N10       30.05R
$$

WIZ032>034-041-042-053>061-220000-
SOUTHWEST WISCONSIN

CITY           SKY/WX    TMP DP  RH WIND       PRES   REMARKS
LA CROSSE      SUNNY     65  44  46 N15       30.11R
SPARTA         SUNNY     63  43  47 NW12      30.11R
VIROQUA        FAIR      61  45  54 N13       30.11R
BOSCOBEL       SUNNY     66  45  46 NW5       30.10R
PRAIRIE DU CHI MOSUNNY   65  44  46 NW8       30.10R
PLATTEVILLE    FAIR      64  45  51 NW13G18   30.10R
$$

WIZ056-057-062-063-064-067-068-220000-
SOUTH CENTRAL WISCONSIN

CITY           SKY/WX    TMP DP  RH WIND       PRES   REMARKS
BARABOO/DELLS  CLEAR     62  41  45 NW8G16    30.08R
LONE ROCK      SUNNY     67  43  41 NW12      30.09R
WATERTOWN      CLEAR     59  44  57 N8G16     30.05R
MADISON        MOCLDY    62  45  53 N12G20    30.06R
MIDDLETON      FAIR      64  43  45 N9        30.07R
MONROE         PTCLDY    61  45  55 NW9G16    30.07R
JANESVILLE     PTCLDY    64  43  45 NW15G23   30.04R
$$

WIZ051-052-058>065-066-070>072-220000-
SOUTHEAST WISCONSIN

CITY           SKY/WX    TMP DP  RH WIND       PRES   REMARKS
MILWAUKEE      PTCLDY    57  42  57 N14       30.05R
WAUKESHA       PTCLDY    55  43  62 NW12G23   30.06R
MILWAUKEE/TIMM CLEAR     57  39  51 N15G21    30.05R
RACINE         PTCLDY    57  43  59 N14       30.06R
BURLINGTON     PTCLDY    58  43  56 N10G17    30.05R
KENOSHA        PTCLDY    59  45  59 N9G20     30.04R
FOND DU LAC    CLEAR     58  42  55 N12       30.06R
SHEBOYGAN      MOCLDY    57  42  57 N10G20    30.04R
WEST BEND      CLEAR     55  41  58 N7        30.05R
JUNEAU         CLEAR     57  43  59 NW9       30.07R
$$

LSZ147-162-220000-
LAKE SUPERIOR

STATION/POSITION TIME  TEMP    WIND        PRES    WAVE
                       AIR SEA DIR/SP/G            HT/PER
                 (UTC) (F)     (DEG/KT/KT) (MB)    (FT/S)
W MID LAKE BUOY  2250   49 47  220/ 12/ 12 1019.6R   2/ 6
DEVILS ISLAND    2300   54     250/  8/  9 1020.4R
PORT WING        2200   58     290/  3/  5 1020.0
SAXON HARBOR     2200   58        CALM     1020.7S
$$

LMZ867-665-643>646-220000-
LAKE MICHIGAN

STATION/POSITION TIME  TEMP    WIND        PRES    WAVE
                       AIR SEA DIR/SP/G            HT/PER
                 (UTC) (F)     (DEG/KT/KT) (MB)    (FT/S)
N MID LAKE BUOY  2250   48 57  340/ 25/ 33 1016.8R   7/ 6
NORTHPORT PIER   2224   49     340/ 25     1017.6R
KEWAUNEE LAKESHO 2300   54     350/ 10/ 16 1016.7R
SHEBOYGAN LAKESH 2300   57 52  330/ 13/ 17 1017.7R
PORT WASHINGTON  2200   58     340/  8/ 15 1017.3R
ATWATER BUOY     2300   57     340/ 14/ 16 1018.7R
MILWAUKEE LAKESH 2300   57     360/ 11/ 18   N/A
S MID LAKE BUOY  2250   56 62  350/ 21/ 25 1016.2R   9/ 8
KENOSHA   LAKESH 2300   59     340/ 15/ 19 1016.6R
$$

TC  - TEMPERATURE IN CELSIUS
VSB - VISIBILITY IN STATUTE MILES
WCI - WIND CHILL INDEX
HX  - HEAT INDEX




USA.gov is the U.S. government's official web portal to all federal, state and local government web resources and services.